Starlink 30704

operational
NORAD ID: 57946 Int'l Des: 2023-148 Owner: SPXS Country: US Constellation: starlink
LEOCIRCULAR

About Starlink 30704

Description loading...

Live Position

Loading 3D Globe...

Upcoming Passes

Altitude History

Altitude vs Time

uPlot chart will show altitude changes over time

Two-Line Element Set

1 57946U 23148M 25305.51477521 .00000125 00000-0 16335-4 0 9996
2 57946 53.1606 336.8076 0001256 94.4077 265.7067 15.30198106117693
Epoch: Nov 1, 2025 • Age: 15 hours

Current Status

Altitude 489.4 km
Velocity 7.62 km/s
Sub-Earth Point -40.95°S, 100.24°E
Launch Date Sep 25, 2023
Age 2.1 years
Type internet

Technical Details

Classification Payload
Mass 730.00 kg
Dry Mass 700.00 kg
Total Mass 730.00 kg
Length 0.30 m
Diameter 4.10 m
Span 29.00 m
Shape Box + pan
Manufacturer SPXS
Bus Type Starlink V2M
Phase Status In Orbit
Owner/State SPXS/US

Large Constellations

Loading constellations...